IRIDIUM 33 DEB, 33853

Orbit data source: Space-Track

IRIDIUM 33 DEB, 33853 is space debris in LEO originally from a launch on Sun, 14 Sep 1997 UTC launched from the Tyuratam Missile And Space Complex (TTMTR). The debris from Iridium 33, an American commercial communications satellite, has been tracked extensively since its accidental collision with the defunct Russian satellite Cosmos 2251 in 2009. This event, occurring at high speed in low Earth orbit (LEO), generated thousands of pieces of space debris, significantly increasing the risk of further collisions. The Iridium 33 debris cloud has impacted space traffic management and orbital debris mitigation strategies, making it a subject of ongoing study in space situational awareness.

Loading next visibility...
Identifier
33853, 1997-051W
Orbit
LEO
Country
Flag of USUS
Related business
Manufacturer
Unknown
Mission
Spacecraft
Bus & Motor
Unknown
Mass
Unknown
Launch date (UTC)
1997-09-14 (28 years ago)
Launch vehicle
Unknown
Launch site
Tyuratam Missile And Space Complex (TTMTR)
Object type
Payload
Rocket body
Debris
Shape & HBR
Unknown shape, 0.1 m
Radar Cross Section
Small (<0.1 m²)

Expand to show TLE details & history
Last TLE update: 10 hours ago

TLE from 10 hours ago
0 IRIDIUM 33 DEB
1 33853U 97051W   26037.84665661  .00004373  00000-0  24691-2 0  9995
2 33853  86.0020 325.2139 0211303  63.8035   0.5282 13.99407306861307
Epoch: 2026-02-06T20:19Z
TLE epoch observation values (Epoch: 2026-02-06T20:19:11.131Z)
Latitude
64.15442°
Longitude
-108.31011°
Altitude
753.243 km
Speed
7.563 km/s
True Right ascension
22h 13m 51s
True Declination
64° 01' 09"
Sunlit
Object was in daylight at epoch
Visualization orbit readout
Latitude
Unknown
Longitude
Unknown
Altitude
Unknown
Speed
Unknown
Apparent Right ascension
Unknown
Apparent Declination
Unknown
Sunlit
N/A
Visualization observer readout
Local Sidereal Time
08:00:19
Azimuth
Unknown
Elevation
Unknown
Doppler factor
Unknown
Orbital elements
Apogee altitude
1,046.507 km
Perigee altitude
739.23 km
Semi-major axis
7,271.005 km
Eccentricity
0.02113
Inclination
86.002°
RAAN
325.2139°
Arg. of periapsis
63.8035°
True anomaly
0.55113°
Mean anomaly
0.5282°
Eccentric anomaly
0.5396°
Mean motion
3.50067 °/min
Orbital period
102.84 mins
BSTAR
0.0024691
Loading maneuver chart data...
Computing Atmospheric mass density...

Documentation

Showing up to 5 results
|